Anniston, AL

8:51 PM CST on November 14, 2019 (GMT -0600)
Anniston Metro

Weather History for KANB - September, 2019

Change the Weather History Date:

Thursday, September 19, 2019

  Actual Average Record
Temperature  
Mean Temperature 78 °F 72 °F  
Max Temperature 87 °F 83 °F 99 °F (1954)
Min Temperature 69 °F 62 °F 42 °F (1981)
Degree Days  
Heating Degree Days 0    
Month to date heating degree days 0  
Since 1 July heating degree days 0  
Cooling Degree Days 14    
Growing Degree Days 29 (Base 50)    
Moisture  
Dew Point 60 °F    
Average Humidity 57    
Maximum Humidity 73    
Minimum Humidity 40    
Precipitation  
Precipitation 0.00 in 0.09 in 1.62 in (2009)
Month to date precipitation 0.42 1.86  
Year to date precipitation 39.59 36.78  
Sea Level Pressure  
Sea Level Pressure 30.11 in    
Wind  
Wind Speed 7 mph (East)    
Max Wind Speed 16 mph    
Max Gust Speed 22 mph    
Visibility 10 miles    
Events      
T = Trace of Precipitation, MM = Missing Value Source: NWS Daily Summary

Daily Weather History Graph

Daily Weather History Graph

Search for Another Location

Airport or City:

Astronomy

Sep. 19, 2019 Rise Set
Actual Time 6:29 AM CDT 6:44 PM CDT
Civil Twilight 6:04 AM CDT 7:09 PM CDT
Nautical Twilight 5:35 AM CDT 7:38 PM CDT
Astronomical Twilight 5:05 AM CDT 8:07 PM CDT
Moon 10:08 PM CDT (9/19) 11:18 AM CDT (9/19)
Length of Visible Light 13h 04m
Length of Day
12h 15m
Waning Gibbous, 74% of the Moon is Illuminated
Sep 19
Waning Gibbous
Sep 21
Last Quarter
Sep 28
New
Oct 5
First Quarter
Oct 13
Full

Hourly Weather History & Observations

Time (CDT) Temp. Heat Index Dew Point Humidity Pressure Visibility Wind Dir Wind Speed Gust Speed Precip Events Conditions
12:53 AM 73.9 °F - 64.0 °F 71% 30.05 in 10.0 mi ENE 8.1 mph - N/A   Clear
1:53 AM 73.0 °F - 62.1 °F 68% 30.06 in 10.0 mi ENE 9.2 mph - N/A   Clear
2:49 AM 71.6 °F - 60.8 °F 69% 30.09 in 10.0 mi ENE 5.8 mph - N/A   Mostly Cloudy
2:53 AM 72.0 °F - 61.0 °F 68% 30.06 in 10.0 mi ENE 5.8 mph - N/A   Mostly Cloudy
3:34 AM 71.1 °F - 59.0 °F 66% 30.09 in 10.0 mi East 6.9 mph - N/A   Scattered Clouds
3:53 AM 71.1 °F - 59.0 °F 66% 30.06 in 10.0 mi East 6.9 mph - N/A   Scattered Clouds
4:03 AM 72.0 °F - 59.0 °F 64% 30.10 in 10.0 mi East 6.9 mph - N/A   Mostly Cloudy
4:53 AM 73.0 °F - 57.9 °F 59% 30.07 in 10.0 mi East 6.9 mph - N/A   Overcast
5:53 AM 72.0 °F - 59.0 °F 64% 30.08 in 10.0 mi East 6.9 mph - N/A   Scattered Clouds
6:53 AM 72.0 °F - 60.1 °F 66% 30.11 in 10.0 mi ENE 5.8 mph - N/A   Clear
7:53 AM 73.0 °F - 61.0 °F 66% 30.12 in 10.0 mi East 10.4 mph - N/A   Clear
8:53 AM 75.9 °F - 62.1 °F 62% 30.14 in 10.0 mi East 9.2 mph - N/A   Clear
9:53 AM 78.1 °F - 61.0 °F 56% 30.15 in 10.0 mi ESE 9.2 mph - N/A   Partly Cloudy
10:53 AM 81.0 °F 81.7 °F 61.0 °F 50% 30.15 in 10.0 mi SE 9.2 mph - N/A   Clear
11:53 AM 82.0 °F 82.4 °F 60.1 °F 47% 30.14 in 10.0 mi ESE 8.1 mph - N/A   Clear
12:53 PM 84.0 °F 84.0 °F 60.1 °F 44% 30.12 in 10.0 mi East 10.4 mph - N/A   Clear
1:53 PM 84.9 °F 85.0 °F 61.0 °F 44% 30.10 in 10.0 mi Variable 5.8 mph - N/A   Clear
2:53 PM 87.1 °F 87.0 °F 61.0 °F 41% 30.09 in 10.0 mi ESE 9.2 mph - N/A   Clear
3:53 PM 86.0 °F 86.1 °F 61.0 °F 43% 30.08 in 10.0 mi SE 6.9 mph - N/A   Clear
4:53 PM 84.9 °F 84.8 °F 60.1 °F 43% 30.08 in 10.0 mi ESE 4.6 mph - N/A   Clear
5:53 PM 84.0 °F 83.8 °F 59.0 °F 43% 30.07 in 10.0 mi ESE 5.8 mph - N/A   Clear
6:53 PM 80.1 °F 80.6 °F 57.9 °F 47% 30.09 in 10.0 mi East 5.8 mph - N/A   Clear
7:53 PM 77.0 °F - 59.0 °F 54% 30.12 in 10.0 mi ENE 4.6 mph - N/A   Clear
8:53 PM 75.0 °F - 60.1 °F 60% 30.13 in 10.0 mi ENE 4.6 mph - N/A   Scattered Clouds
9:53 PM 73.9 °F - 59.0 °F 59% 30.15 in 10.0 mi ENE 5.8 mph - N/A   Clear
10:53 PM 72.0 °F - 59.0 °F 64% 30.17 in 10.0 mi ENE 4.6 mph - N/A   Clear
11:53 PM 71.1 °F - 57.0 °F 61% 30.17 in 10.0 mi ENE 6.9 mph - N/A   Clear